Location: Mascot Post Office (historical)
(40.2645°N, 99.5462°W)
Time: 16:42:02
(UTC+00:00)

Cosmos 2237 Rocket - Pass Details

Date: 14 July 2020
Orbit: 834 x 850 km, 71.0° (Epoch: 05 August)

Event Time Altitude Azimuth Distance (km) Brightness Sun altitude
Rises 02:56:52 0° 186° (S) 3,394 5.0 -8.6°
Reaches altitude 10° 02:59:22 10° 182° (S) 2,464 4.3 -9.0°
Maximum altitude 03:04:49 51° 107° (ESE) 1,059 2.4 -9.8°
Drops below altitude 10° 03:10:19 10° 33° (NNE) 2,483 4.7 -10.6°
Sets 03:12:50 0° 29° (NNE) 3,422 5.5 -11.0°
